Weather History for Key West NAF, FL

Change the Weather History Date:

Monday, April 22, 2013

  Actual Average Record
Temperature  
Mean Temperature 78 °F -  
Max Temperature 84 °F 82 °F 87 °F (1982)
Min Temperature 73 °F 73 °F 60 °F (2004)
Cooling Degree Days 14    
Growing Degree Days 28 (Base 50)    
Moisture  
Dew Point 70 °F    
Average Humidity 78    
Maximum Humidity 91    
Minimum Humidity 65    
Precipitation  
Precipitation 0.08 in - - ()
Sea Level Pressure  
Sea Level Pressure 30.00 in    
Wind  
Wind Speed 7 mph (ENE)    
Max Wind Speed 15 mph    
Max Gust Speed 21 mph    
Visibility 10 miles    
Events Rain , Thunderstorm    
Averages and records for this station are not official NWS values.
T = Trace of Precipitation, MM = Missing Value Source: NWS Daily Summary

Daily Weather History Graph

Daily Weather History Graph

Search for Another Location

Airport:

Trip Planner

Search our weather history database for the weather conditions in past years. The results will help you decide how hot, cold, wet, or windy it might be!

Date:

Astronomy

Apr. 22, 2013 Rise Set
Actual Time 6:58 AM EDT 7:52 PM EDT
Civil Twilight 6:34 AM EDT 8:15 PM EDT
Nautical Twilight 6:07 AM EDT 8:43 PM EDT
Astronomical Twilight 5:38 AM EDT 9:12 PM EDT
Moon 4:57 PM EDT (4/22) 4:31 AM EDT (4/22)
Length of Visible Light 13h 40m
Length of Day
12h 53m
Waxing Gibbous, 87% of the Moon is Illuminated
Apr 22
Waxing Gibbous
Apr 25
Full
May 2
Last Quarter
May 9
New
May 18
First Quarter

Hourly Weather History & Observations

Time (EDT) Temp. Heat Index Dew Point Humidity Pressure Visibility Wind Dir Wind Speed Gust Speed Precip Events Conditions
12:53 AM 78.1 °F - 73.9 °F 87% 30.06 in 7.0 mi ESE 5.8 mph - 0.00 in Rain Light Rain
1:24 AM 78.8 °F - 73.4 °F 83% 30.05 in 10.0 mi ESE 3.5 mph - 0.02 in Rain , Thunderstorm Light Thunderstorms and Rain
1:48 AM 73.4 °F - 64.4 °F 73% 30.04 in 10.0 mi South 15.0 mph 20.7 mph 0.03 in Rain Light Rain
1:53 AM 73.0 °F - 64.0 °F 73% 30.03 in 10.0 mi South 13.8 mph 20.7 mph 0.03 in Rain Light Rain
2:35 AM 73.4 °F - 66.2 °F 78% 30.00 in 10.0 mi ENE 5.8 mph - 0.03 in Rain Light Rain
2:53 AM 73.0 °F - 66.0 °F 79% 29.99 in 8.0 mi NE 4.6 mph - 0.03 in   Mostly Cloudy
3:04 AM 73.4 °F - 68.0 °F 83% 30.00 in 10.0 mi NE 5.8 mph - N/A   Scattered Clouds
3:16 AM 73.4 °F - 69.8 °F 88% 30.00 in 10.0 mi ENE 9.2 mph - N/A   Mostly Cloudy
3:32 AM 73.4 °F - 69.8 °F 88% 30.00 in 10.0 mi Variable 4.6 mph - N/A   Mostly Cloudy
3:53 AM 75.0 °F - 71.1 °F 87% 29.99 in 10.0 mi ENE 5.8 mph - N/A   Scattered Clouds
4:53 AM 73.9 °F - 71.1 °F 91% 29.99 in 7.0 mi NE 5.8 mph - 0.01 in Rain Light Rain
5:53 AM 73.9 °F - 71.1 °F 91% 29.97 in 9.0 mi ENE 3.5 mph - 0.01 in   Clear
6:53 AM 75.0 °F - 72.0 °F 90% 29.96 in 10.0 mi East 3.5 mph - N/A   Scattered Clouds
7:53 AM 75.9 °F - 72.0 °F 87% 29.99 in 10.0 mi East 6.9 mph - N/A   Scattered Clouds
8:53 AM 78.1 °F - 72.0 °F 81% 30.01 in 10.0 mi ENE 5.8 mph - N/A   Mostly Cloudy
9:53 AM 79.0 °F - 71.1 °F 77% 30.02 in 10.0 mi ENE 6.9 mph - N/A   Mostly Cloudy
10:53 AM 82.0 °F 86.7 °F 72.0 °F 71% 30.02 in 10.0 mi SSE 10.4 mph - N/A   Mostly Cloudy
11:53 AM 84.0 °F 89.6 °F 72.0 °F 67% 30.04 in 10.0 mi ESE 9.2 mph - N/A   Mostly Cloudy
1:53 PM 81.0 °F 84.9 °F 71.1 °F 72% 30.00 in 10.0 mi SSE 4.6 mph - N/A   Mostly Cloudy
2:53 PM 81.0 °F 84.4 °F 70.0 °F 69% 29.97 in 10.0 mi ESE 6.9 mph - N/A   Mostly Cloudy
3:53 PM 82.0 °F 85.9 °F 70.0 °F 67% 29.95 in 10.0 mi East 3.5 mph - N/A   Mostly Cloudy
4:53 PM 82.0 °F 85.5 °F 69.1 °F 65% 29.93 in 10.0 mi Variable 3.5 mph - N/A   Scattered Clouds
5:53 PM 80.1 °F 83.2 °F 70.0 °F 71% 29.94 in 10.0 mi SSW 3.5 mph - N/A   Scattered Clouds
6:53 PM 82.0 °F 85.9 °F 70.0 °F 67% 29.95 in 10.0 mi Calm Calm - N/A   Mostly Cloudy
7:53 PM 80.1 °F 83.2 °F 70.0 °F 71% 29.96 in 10.0 mi North 6.9 mph - N/A   Scattered Clouds
8:53 PM 79.0 °F - 72.0 °F 79% 29.99 in 10.0 mi North 4.6 mph - N/A   Scattered Clouds
9:53 PM 78.1 °F - 71.1 °F 79% 30.00 in 10.0 mi NNE 6.9 mph - N/A   Scattered Clouds
10:53 PM 78.1 °F - 71.1 °F 79% 30.01 in 10.0 mi North 9.2 mph - N/A   Clear
11:41 PM 78.8 °F - 71.6 °F 78% 30.01 in 10.0 mi NNE 10.4 mph - N/A   Mostly Cloudy
11:53 PM 78.1 °F - 70.0 °F 76% 30.01 in 10.0 mi NNE 11.5 mph - N/A   Mostly Cloudy